Location: Unspecified
(0.0000°N, 0.0000°E)
Time: 19:01:01
(UTC+00:00)

AAUSAT CUBESAT 2 - Visible Passes

Search period start: 09 December 2019 00:00
Search period end: 19 December 2019 00:00
Orbit: 575 x 590 km, 97.5° (Epoch: 09 December)

Date Brightness Start Highest point End Pass type
(mag) Time Alt. Az. Time Alt. Az. Time Alt. Az.
09 Dec ? 18:12:51 10° S 18:16:57 82° W 18:21:01 10° NNW visible
10 Dec ? 18:18:38 10° S 18:22:41 66° WSW 18:26:44 10° NNW visible
11 Dec ? 18:24:28 10° S 18:28:27 52° W 18:32:25 10° NNW visible
12 Dec ? 18:30:19 10° S 18:34:12 42° WSW 18:38:03 10° NNW visible
13 Dec ? 18:36:14 10° SSW 18:39:56 34° WSW 18:43:40 10° NW visible
14 Dec ? 18:42:11 10° SSW 18:45:41 28° WSW 18:49:12 10° NW visible
15 Dec ? 05:12:08 10° E 05:13:25 11° ESE 05:14:42 10° ESE visible
15 Dec ? 18:48:10 10° SSW 18:51:26 23° WSW 18:54:42 10° NW visible
16 Dec ? 05:17:01 10° ENE 05:19:10 14° ESE 05:21:19 10° SE visible
16 Dec ? 18:54:15 10° SSW 18:57:11 19° WSW 19:00:07 10° NW visible
17 Dec ? 05:22:13 10° ENE 05:24:55 17° ESE 05:27:36 10° SE visible
17 Dec ? 19:00:26 10° SW 19:02:56 16° WSW 19:05:25 10° WNW visible
18 Dec ? 05:27:34 10° NE 05:30:40 20° ESE 05:33:45 10° SSE visible
18 Dec ? 19:06:48 10° SW 19:08:40 13° WSW 19:10:33 10° WNW visible
